Location: Poughquag
(41.6090°N, 73.6820°W)
Time: 22:56:29
(UTC-04:00)

X-37B - Pass Details

Date: 17 June 2023
Orbit: 277 x 277 km, 45.0° (Epoch: 01 November)

Event Time Altitude Azimuth Distance (km) Brightness Sun altitude
Exits shadow 02:46:42 31° 28° (NNE) 521 1.9 -20.1°
Drops below altitude 10° 02:48:27 10° 64° (ENE) 1,102 3.6 -20.0°
Sets 02:50:27 0° 73° (ENE) 1,915 4.8 -19.8°
